CamptonHillsWeather.com

Find the Weather for any City, State  
or Zipcode, or Country:

Campton Hills, IL Weather
Local Radar

Local Radar

Graphs, Details
Graphs and Gauges
Detailed Weather
Detailed Reports
Ajax Version (old)
Central Kane Co Summary
Davis Current Weather Graphs
Davis 24 Hour Weather History

CW3778 Data

Weather Underground
Maps
Temperature
Heat Index
Windchill
Humidity
Radar
Dew Point
Wind
Visibility
Visible Satellite
Satellite
Fronts
Snow Depth
Jet Stream
Flight Rules
Forecast Maps
Temperature Forecast
Maximum Temperature Forecast
Minimum Temperature Forecast
Dewpoint Forecast
Prevalent Weather
12Hr Probability of Precip.
Sky Cover
Health Maps
UV Forecast
Air Quality
Peak Air Quality Index
Weather Station
Davis Instruments Vantage Pro
Current Conditions [Select Refresh to Update]

Updated: 6:08am on 7/30/14

(location)
Currently:
58.5F

Clear
Mostly Cloudy

High: 60.5 F< 
(12:00am
Low: 57.4 F 
(3:20am)
Wind: NNE 0 mph
Calm
Gust: 2 mph
Today's High Wind: 2 mph (12:20am)
Humidity: 94%
Pressure: 30.02 in  (Steady
Pressure Rate: 0.009 in/hr
Dew Point: 56.8F
Wind Chill: 58.5 F
Heat Index (feels like): 64.7 F
Comfort Level: Cool
Temperature Rate:  0.40F/hr
 
5 Day Forecast
 
Wed Thu Fri Sat Sun
Clear Clear Clear Clear Clear
Chance T-storms Partly Cloudy Chance T-storms Chance T-storms Partly Cloudy
77 81 81 79 79
57 64 61 55 63

Records and Normals
 
Temperature Forecast Normal Record
High 77 84 98
(1999)
Low 57 62 48
(1997)
 
Links
 
 
Weather Advisories
No Advisories
Full Advisory Text...
Weather Map

Web Cam

Almanac
 
Sunrise:  
5:47am
Moonrise: 
9:21am

Moon Phase:
10%

Sunset: 
8:16pm
Moonset:  
9:52pm
 Star Chart...
Rainfall Totals
Hourly Rain 0.00 in
Daily Rain: 0.00 in
Monthly Rain: 2.16 in
Yearly Rain: 21.34 in
Normal Rain, month to date: 2.18 in
Normal Rain, year to date: 16.76 in
Link to Village of Campton Hills Map

Link to Counties of Illinois Map

Local Weather Exchange Network
Station ID City 
(Click for Map Location)
Neighborhood 
(Click for History)
Last Update (Date & Time) Temperature
 ()
Dew
Point ()
Humidity 
(%)
Wind 
(mph)
from the Wind Gust 
(mph) 
Pressure(in) Hourly
Rain(in)
KILSTCHA10 St. Charles Hunt Club 07/30 05:58:53 60.1 60.0 99 0 North 0 29.62 0.00
KILCAMPT3 Campton Hills Campton Hills 07/30 06:00:28 57.6 58.0 100 0 NNW 0 30.03 0.00
KILGENEV6 Geneva Dover Ridge 07/30 06:00:23 59.9 56.0 88 0 WNW 0 29.99 0.00
KILSTCHA8 St. Charles Ronzheimer Ave. & S. Tyler Rd. 07/30 06:00:15 60.2 57.0 88 2 WNW 5 29.99 0.00
KILGENEV3 Geneva Mill Creek (NE) 07/30 06:00:26 58.3 57.0 95 0 North 0 30.02 0.00
KILSTCHA1 St Charles CamptonHillsWeather.com Central Kane County 07/30 06:00:07 58.4 57.0 94 0 NNE 1 30.02 0.00
KILELGIN13 Elgin Creek Side 07/30 06:00:27 58.7 55.0 89 0 WNW 0 29.12 0.00
KILGENEV2 Geneva Mill Creek 07/30 05:49:55 58.9 56.0 90 0 WNW 1 29.97 0.00
KILBATAV1 Batavia Tri-Cities on the Fox River 07/30 05:59:25 59.3 56.0 88 0 NE 0 30.07 0.00
KILELBUR5 Elburn Prairie Highlands 07/30 06:00:16 60.3 57.0 90 0 West 3 30.01 0.00
KILBATAV3 Batavia West Batavia 07/30 05:56:01 58.6 57.0 93 0 WNW 1 29.98 0.00
KILELBUR6 Elburn Columbine Square 07/30 05:50:12 58.4 56.0 92 0 WSW 1 29.96 0.00
KILBATAV5 Batavia Fermi National Accelerator Laboratory 07/30 05:47:01 59.8 56.0 88 2 West 4 29.96 0.00
KILWESTC5 West Chicago THEBROWNHOUSE.ORG 07/30 06:00:02 56.3 55.0 96 0 WSW 0 30.02 0.00
KILWESTC8 West Chicago Ingalton Hills Estates 07/30 06:00:08 60.0 58.0 93 1 SSW 1 30.12 0.00
KILBARTL1 Bartlett Amber Grove KC9TVS 07/30 05:55:23 59.6 39.0 47 3 West 6 30.06 0.00
KILNORTH11 North Aurora Waterford Oaks 07/30 06:00:08 59.2 57.0 92 0 West 2 30.00 0.00
KILELGIN10 Elgin Wing Park 07/30 05:59:51 60.4 57.0 88 1 South 0 29.18 0.00
MUP188 Elburn MesoWest ELBRN1 IL US UPR 07/30 04:50:00 61.0 0.0 0 0 North 0 0.00 0.00
KILELGIN14 Elgin Elgin, IL 07/30 06:00:10 59.5 56.0 87 0 West 1 29.97 0.00
KILCAROL5 Carol Stream Stonehenge Court 07/30 06:00:05 59.7 45.0 59 0 NW 0 29.99 0.00
KILGILBE2 Gilberts Gilberts, IL 07/30 06:00:14 58.6 56.0 92 2 SW 3 30.23 0.00
KILWINFI3 Winfield Fredericksburg Farm 07/30 06:00:09 57.9 56.0 94 0 SE 0 29.93 0.00
KILWINFI2 Winfield Winfield Heights (SarahNet) 07/30 05:55:58 59.1 56.0 88 0 South 0 30.00 0.00
KILSLEEP3 Sleepy Hollow SLEEPY HOLLOW 07/30 06:00:22 59.4 54.0 84 1 WSW 1 29.56 0.00
KILCAROL6 Carol Stream Merbach Ct 07/30 06:00:27 60.3 56.0 87 2 West 2 29.98 0.00
KILWARRE2 Warrenville meso_neigh27 07/30 06:00:13 58.3 57.0 96 0 North 0 29.99 0.00
KILHANOV2 Hanover Park meso_neigh28 07/30 05:59:08 59.7 58.0 93 0 NE 1 30.02 0.00
KILWHEAT8 Wheaton Wheaton Sanitary District 07/30 05:45:48 60.1 58.0 92 0 NNE 0 30.00 0.00
KILWARRE4 Warrenville Cerny Park 07/30 06:00:05 59.9 60.0 99 0 North 0 30.19 0.00
KILWHEAT5 Wheaton N9ABF - West Wheaton 07/30 05:59:59 59.6 56.0 86 0 North 0 30.00 0.00
KILSCHAU9 Schaumburg Schaumburg West 07/30 06:00:22 60.1 60.0 99 0 West 3 30.00 0.00
KILEASTD2 East Dundee Rock Road Industrial Park 07/30 05:58:52 60.8 54.0 79 3 WNW 5 30.01 0.00
KILCARPE6 Carpentersville Carpentersville 07/30 05:59:25 60.1 56.0 88 0 ENE 0 29.15 0.00
KILWHEAT11 Wheaton Wheaton SW Orth Ct 07/30 06:00:16 61.4 56.0 81 0 SE 0 30.14 0.00
KILNAPER19 Naperville Brookdale Lakes 07/30 06:00:20 60.9 57.0 88 0 WNW 1 29.99 0.00
KDPA Chicago DuPage Official Station 07/30 05:52:00 60.0 55.0 83 5 West --- 30.02 ---
KARR Aurora Official Station 07/30 05:52:00 59.0 56.0 90 0 North --- 30.03 ---
KDKB DeKalb Official Station 07/30 05:55:00 59.0 55.0 87 6 West --- 30.04 ---
KORD Chicago Official Station 07/30 05:51:00 62.0 54.0 75 6 West --- 30.01 ---
Full Advisory Text
No Warnings

Ambient Weather and Weather Underground
 Never base important decisions on this or any weather information obtained from the Internet
Updated Automatically by Ambient Weather's Virtual Weather Station  V13.01